Flag for Germany Weather past 2 weeks in Rastatt, Baden-Württemberg, Germany

Now
64 °F

Clear.


Feels Like: 64 °F
Forecast: 62 / 75 °F
Wind: 2 mph from South

Location: Karlsruhe - Baden Wurttemberg

Current Time: Sep 20, 2014 at 12:39:35 AM

Latest Report: Sep 19, 2014 at 10:50 PM


Visibility: 10 mi

Pressure: 29.95 "Hg

Humidity: 78%

Dew point: 57 °F

Location of RastattLocation

Historic Weather in Rastatt — Graph

°F

Rastatt temperature yesterday

Maximum temperature yesterday: 79 °F (at 2:50 PM)
Minimum temperature yesterday: 61 °F (at 5:20 AM)
Average temperature yesterday: 68 °F

Past Weeks' High & Low Weather Summary

 TemperatureHumidityPressure
High81 °F (Sep 6, 5:20 PM)94% (Sep 4, 11:20 PM)30.18 "Hg (Sep 4, 11:20 PM)
Low50 °F (Sep 11, 4:50 AM)42% (Sep 6, 5:20 PM)29.83 "Hg (Sep 17, 4:20 PM)
Average64 °F77%29.99 "Hg
* Reported Sep 4 10:20 PM — Sep 19 10:50 PM, Rastatt, Weather by CustomWeather, © 2014

Note: Actual official high and low records may vary slightly from our data, if they occured in-between our weather recording intervals... More about our weather records

Advertising

Rastatt weather history for previous 24 hours

 ConditionsComfort  
Time TempWeatherWind HumidityBarometerVisibility
10:50 PM
Sep 19
64 °FClear.2 mph78%29.95 "Hg10 mi
10:20 PM64 °FClear.3 mph78%29.95 "Hg10 mi
9:50 PM64 °FClear.6 mph78%29.95 "Hg10 mi
9:20 PM66 °FClear.6 mph73%29.95 "Hg10 mi
8:50 PM68 °FClear.9 mph73%29.95 "Hg10 mi
8:20 PM68 °FSunny.3 mph83%29.95 "Hg10 mi
7:50 PM68 °FSunny.1 mph78%29.95 "Hg10 mi
7:20 PM68 °FSunny.No wind83%29.95 "Hg10 mi
6:50 PM70 °FSunny.2 mph78%29.92 "Hg10 mi
6:20 PM68 °FScattered clouds.3 mph78%29.92 "HgN/A
5:50 PM68 °FScattered showers. Scattered clouds.No wind83%29.92 "HgN/A
5:20 PM70 °FThundershowers. Scattered clouds.8 mph69%29.92 "HgN/A
4:50 PM75 °FScattered showers. Scattered clouds.3 mph61%29.92 "HgN/A
4:20 PM77 °FScattered showers. Scattered clouds.6 mph54%29.92 "HgN/A
3:50 PM75 °FScattered showers. Scattered clouds.8 mph57%29.92 "HgN/A
3:20 PM77 °FScattered clouds.9 mph51%29.92 "HgN/A
2:50 PM79 °FScattered clouds.6 mph54%29.92 "HgN/A
2:20 PM77 °FPassing clouds.9 mph54%29.92 "HgN/A
1:50 PM77 °FPassing clouds.5 mph57%29.92 "HgN/A
1:20 PM75 °FSunny.9 mph61%29.92 "Hg10 mi
12:50 PM75 °FPassing clouds.8 mph61%29.92 "HgN/A
12:20 PM73 °FPassing clouds.8 mph69%29.92 "HgN/A
11:50 AM70 °FPassing clouds.6 mph73%29.92 "HgN/A
11:20 AM70 °FSunny.3 mph73%29.92 "Hg10 mi
10:50 AM68 °FSunny.2 mph78%29.92 "Hg10 mi
10:20 AM66 °FSunny.3 mph83%29.92 "Hg10 mi
9:50 AM66 °FSunny.7 mph88%29.92 "Hg10 mi
9:20 AM64 °FSunny.6 mph88%29.92 "Hg10 mi
8:50 AM64 °FSunny.5 mph88%29.92 "Hg10 mi
8:20 AM63 °FPassing clouds.6 mph88%29.92 "HgN/A
7:50 AM63 °FPassing clouds.6 mph88%29.92 "HgN/A
7:20 AM61 °FPartly cloudy.6 mph94%29.92 "Hg6 mi
6:50 AM61 °FLight rain. Partly cloudy.3 mph94%29.92 "Hg4 mi
6:20 AM61 °FPassing clouds.No wind94%29.92 "Hg4 mi
5:50 AM61 °FSprinkles. Passing clouds.1 mph94%29.89 "Hg5 mi
5:20 AM61 °FRain showers. Passing clouds.3 mph88%29.89 "Hg4 mi
4:50 AM63 °FRain showers. Passing clouds.3 mph88%29.89 "Hg4 mi
Weather by CustomWeather, © 2014

See weather overviewHow to use our weather pages